Alexandria, LA

6:31 PM CST on February 19, 2018 (GMT -0600)
Alexandria International

Weather History for KAEX - February, 2013

Change the Weather History Date:

Monday, February 18, 2013

  Actual Average Record
Temperature  
Mean Temperature 56 °F 53 °F  
Max Temperature 68 °F 64 °F 83 °F (1907)
Min Temperature 44 °F 42 °F 16 °F (1900)
Degree Days  
Heating Degree Days 9 13  
Month to date heating degree days 211 259  
Since 1 July heating degree days 1319 1550  
Growing Degree Days 6 (Base 50)    
Moisture  
Dew Point 56 °F    
Average Humidity 80    
Maximum Humidity 100    
Minimum Humidity 59    
Precipitation  
Precipitation 0.69 in 0.17 in 1.90 in (2012)
Month to date precipitation 4.10 2.83  
Year to date precipitation 15.15 8.05  
Snow  
Snow 0.00 in - T in (1910)
Month to date snowfall 0.0  
Since 1 July snowfall 0.0  
Snow Depth 0.00 in    
Sea Level Pressure  
Sea Level Pressure 29.97 in    
Wind  
Wind Speed 11 mph (SSE)    
Max Wind Speed 24 mph    
Max Gust Speed 32 mph    
Visibility 8 miles    
Events Rain , Thunderstorm    
T = Trace of Precipitation, MM = Missing Value Source: NWS Daily Summary

Daily Weather History Graph

Daily Weather History Graph

Search for Another Location

Airport or City:

Trip Planner

Search our weather history database for the weather conditions in past years. The results will help you decide how hot, cold, wet, or windy it might be!

Date:

Astronomy

Feb. 18, 2013 Rise Set
Actual Time 6:48 AM CST 6:00 PM CST
Civil Twilight 6:23 AM CST 6:24 PM CST
Nautical Twilight 5:55 AM CST 6:53 PM CST
Astronomical Twilight 5:27 AM CST 7:21 PM CST
Moon 11:57 AM CST (2/18) 1:18 AM CST (2/18)
Length of Visible Light 12h 01m
Length of Day
11h 11m
First Quarter, 58% of the Moon is Illuminated
Feb 18
First Quarter
Feb 25
Full
Mar 4
Last Quarter
Mar 11
New
Mar 19
First Quarter

Hourly Weather History & Observations

Time (CST) Temp. Windchill Dew Point Humidity Pressure Visibility Wind Dir Wind Speed Gust Speed Precip Events Conditions
12:53 AM 45.0 °F 41.2 °F 41.0 °F 86% 30.14 in 10.0 mi SE 6.9 mph - N/A   Clear
1:53 AM 44.1 °F 40.8 °F 42.1 °F 93% 30.13 in 10.0 mi SE 5.8 mph - N/A   Partly Cloudy
2:53 AM 45.0 °F 41.2 °F 42.1 °F 90% 30.11 in 10.0 mi SE 6.9 mph - N/A   Mostly Cloudy
3:53 AM 46.9 °F - 43.0 °F 86% 30.09 in 10.0 mi SE 6.9 mph - N/A   Mostly Cloudy
4:53 AM 48.9 °F - 45.0 °F 86% 30.09 in 10.0 mi SE 6.9 mph - N/A   Overcast
6:53 AM 51.1 °F - 46.0 °F 83% 30.08 in 10.0 mi SE 11.5 mph - N/A   Overcast
7:53 AM 53.1 °F - 46.9 °F 80% 30.09 in 10.0 mi SE 12.7 mph - N/A   Overcast
8:53 AM 55.0 °F - 48.0 °F 77% 30.07 in 10.0 mi SSE 18.4 mph 23.0 mph N/A   Overcast
9:53 AM 57.0 °F - 50.0 °F 77% 30.06 in 10.0 mi SE 19.6 mph - N/A   Overcast
10:53 AM 62.1 °F - 52.0 °F 70% 30.04 in 10.0 mi SSE 18.4 mph - N/A   Overcast
11:53 AM 68.0 °F - 54.0 °F 61% 30.01 in 10.0 mi South 15.0 mph 25.3 mph N/A   Overcast
12:53 PM 66.9 °F - 55.0 °F 66% 29.99 in 10.0 mi South 11.5 mph 21.9 mph N/A   Overcast
1:53 PM 64.9 °F - 57.9 °F 78% 29.96 in 10.0 mi SSE 9.2 mph - 0.00 in Rain Light Rain
2:53 PM 64.9 °F - 57.9 °F 78% 29.92 in 9.0 mi SSE 15.0 mph 23.0 mph 0.00 in Rain Light Rain
3:53 PM 63.0 °F - 57.9 °F 84% 29.92 in 10.0 mi South 9.2 mph 17.3 mph 0.03 in Rain , Thunderstorm Light Rain
4:10 PM 62.6 °F - 59.0 °F 88% 29.91 in 4.0 mi SSE 5.8 mph - 0.06 in Rain , Thunderstorm Heavy Rain
4:25 PM 60.8 °F - 59.0 °F 94% 29.90 in 6.0 mi SE 5.8 mph - 0.09 in Rain Rain
4:32 PM 60.8 °F - 60.8 °F 100% 29.90 in 3.0 mi SSE 6.9 mph - 0.14 in Rain Heavy Rain
4:53 PM 61.0 °F - 60.1 °F 97% 29.92 in 3.0 mi SSE 6.9 mph - 0.21 in Rain Heavy Rain
5:17 PM 60.8 °F - 60.8 °F 100% 29.90 in 5.0 mi SE 9.2 mph - 0.06 in Rain Light Rain
5:53 PM 61.0 °F - 60.1 °F 97% 29.91 in 5.0 mi SSE 11.5 mph - 0.11 in Rain Light Rain
6:06 PM 62.6 °F - 60.8 °F 94% 29.89 in 6.0 mi South 6.9 mph - 0.02 in Rain Rain
6:13 PM 60.8 °F - 60.8 °F 100% 29.89 in 6.0 mi South 5.8 mph - 0.03 in Rain Rain
6:17 PM 60.8 °F - 60.8 °F 100% 29.89 in 7.0 mi SSE 6.9 mph - 0.03 in Rain Light Rain
6:26 PM 60.8 °F - 60.8 °F 100% 29.89 in 10.0 mi SE 9.2 mph - 0.04 in Rain Light Rain
6:33 PM 60.8 °F - 60.8 °F 100% 29.88 in 7.0 mi SSE 9.2 mph - 0.04 in Rain Light Rain
6:46 PM 60.8 °F - 60.8 °F 100% 29.89 in 8.0 mi SSE 9.2 mph - 0.05 in Rain Light Rain
6:53 PM 61.0 °F - 60.1 °F 97% 29.91 in 7.0 mi SSE 5.8 mph - 0.06 in Rain Rain
7:34 PM 60.8 °F - 60.8 °F 100% 29.90 in 7.0 mi SSE 4.6 mph - 0.05 in Rain Rain
7:53 PM 62.1 °F - 61.0 °F 96% 29.91 in 10.0 mi South 6.9 mph - 0.08 in   Mostly Cloudy
8:03 PM 62.6 °F - 60.8 °F 94% 29.90 in 10.0 mi South 5.8 mph - N/A   Mostly Cloudy
8:53 PM 64.0 °F - 62.1 °F 93% 29.91 in 3.0 mi SSW 10.4 mph 19.6 mph 0.18 in Rain , Thunderstorm Light Rain
9:14 PM 64.4 °F - 62.6 °F 94% 29.91 in 10.0 mi SSW 9.2 mph - 0.01 in   Overcast
9:53 PM 63.0 °F - 62.1 °F 97% 29.92 in 10.0 mi SSW 6.9 mph - 0.01 in   Clear
10:41 PM 64.4 °F - 62.6 °F 94% 29.93 in 10.0 mi West 6.9 mph - N/A   Mostly Cloudy
10:53 PM 63.0 °F - 61.0 °F 93% 29.96 in 9.0 mi NW 16.1 mph 20.7 mph 0.00 in Rain Light Rain
11:09 PM 60.8 °F - 57.2 °F 88% 29.96 in 10.0 mi West 5.8 mph - 0.01 in   Mostly Cloudy
11:53 PM 59.0 °F - 55.0 °F 87% 29.99 in 10.0 mi NW 18.4 mph - 0.01 in   Mostly Cloudy